FW0209 Weather Reports


time (UTC)temp
C
wind
direction
speed
KPH
gust
KPH
rain 1hr
cm
rain 24hr
cm
rain mn
cm
humidity
%
barometer
mb
20260510073024 12 116 3.2 9.7 0.61 5.51 1.40 90 1017.6
20260510071522 12 119 1.6 6.4 1.09 5.51 1.40 90 1018.0
20260510070010 12 57 4.8 9.7 1.09 5.51 1.40 90 1017.2
20260510064533 12 240 1.6 3.2 0.89 5.31 1.35 90 1018.5
20260510063019 12 240 0.0 1.6 0.51 4.90 1.24 90 1018.3
20260510061515 12 239 0.0 1.6 0.00 4.39 1.12 89 1018.4
20260510060017 12 238 0.0 4.8 0.00 4.39 1.12 89 1018.3
20260510054515 12 241 0.0 1.6 0.10 4.39 1.12 89 1018.3
20260510053038 12 240 0.0 1.6 0.71 4.39 1.12 89 1018.4
20260510051515 12 241 0.0 4.8 0.89 4.39 1.12 89 1018.3
20260510050014 12 241 0.0 8.0 0.99 4.39 1.12 88 1018.4
20260510044517 12 240 1.6 6.4 1.09 4.29 1.09 88 1018.3
20260510043035 12 240 1.6 6.4 1.30 3.61 0.91 87 1018.4
20260510041526 12 240 0.0 1.6 2.01 3.51 0.89 87 1018.2
20260510040024 12 241 1.6 6.4 2.49 3.40 0.86 87 1018.3
20260510034516 12 241 1.6 4.8 2.59 3.20 0.81 86 1018.2
20260510033030 12 210 0.0 0.0 1.91 2.31 0.58 85 1018.5
20260510031521 12 210 0.0 1.6 1.19 1.40 0.36 84 1018.5
20260510030036 12 213 1.6 4.8 0.71 0.79 0.20 84 1018.2
20260510024527 13 215 4.8 8.0 0.61 0.61 0.15 82 1018.1
20260510023021 13 215 4.8 6.4 0.41 0.41 0.10 81 1018.0
20260510021518 13 215 0.0 3.2 0.20 0.20 0.05 79 1017.9
20260510020014 13 213 3.2 8.0 0.10 0.10 0.03 77 1018.1
20260510014529 13 230 1.6 3.2 0.00 0.00 0.00 75 1017.8
20260510013022 13 236 1.6 4.8 0.00 0.00 0.00 74 1018.1
20260510011543 13 237 1.6 8.0 0.00 0.00 0.00 74 1018.0
20260510010037 13 236 1.6 8.0 0.00 0.00 0.00 74 1018.0
20260510004520 13 235 3.2 8.0 0.00 0.00 0.00 74 1017.9
20260510003038 14 230 8.0 14.5 0.00 0.00 0.00 73 1018.3
20260510001532 14 208 6.4 12.9 0.00 0.00 0.00 72 1018.3
20260510000026 14 281 8.0 12.9 0.00 0.00 0.00 71 1018.6
20260509234523 15 285 1.6 4.8 0.00 0.00 0.00 70 1018.9
20260509233038 15 284 3.2 6.4 0.00 0.00 0.00 70 1018.8
20260509231528 15 286 0.0 4.8 0.00 0.00 0.00 69 1018.9
20260509230010 15 287 4.8 11.3 0.00 0.00 0.00 68 1019.0
20260509224529 15 285 3.2 8.0 0.00 0.00 0.00 67 1018.6
20260509223026 16 228 0.0 3.2 0.00 0.00 0.00 66 1018.5
20260509221528 16 228 3.2 8.0 0.00 0.00 0.00 66 1018.4
20260509220027 16 232 0.0 3.2 0.00 0.00 0.00 67 1018.1
20260509214510 16 235 0.0 4.8 0.00 0.00 0.00 66 1018.0
20260509213049 16 235 1.6 6.4 0.00 0.00 0.00 65 1018.1
20260509211547 17 234 1.6 4.8 0.00 0.00 0.00 66 1018.3
20260509210043 17 234 1.6 4.8 0.00 0.00 0.00 65 1018.5
20260509204518 17 234 0.0 4.8 0.00 0.00 0.00 64 1018.8
20260509203015 17 234 0.0 6.4 0.00 0.00 0.00 63 1019.0
20260509201552 17 232 3.2 6.4 0.00 0.00 0.00 63 1018.8
20260509200029 18 180 0.0 1.6 0.00 0.00 0.00 63 1018.8
20260509194525 18 181 0.0 8.0 0.00 0.00 0.00 62 1018.6
20260509193041 18 189 4.8 11.3 0.00 0.00 0.00 62 1018.4
20260509191533 18 167 3.2 12.9 0.00 0.00 0.00 61 1018.2
20260509190029 18 186 0.0 12.9 0.00 0.00 0.00 61 1017.7
20260509184522 18 219 3.2 19.3 0.00 0.00 0.00 59 1017.7
20260509183024 19 171 0.0 4.8 0.00 0.00 0.00 57 1017.6
20260509181521 20 183 0.0 8.0 0.00 0.00 0.00 55 1017.5
20260509180022 20 186 1.6 9.7 0.00 0.00 0.00 55 1017.4
20260509174520 20 205 1.6 12.9 0.00 0.00 0.00 54 1017.5
20260509173057 20 185 3.2 14.5 0.00 0.00 0.00 52 1017.7
20260509171515 21 167 4.8 17.7 0.00 0.00 0.00 51 1017.6
20260509170014 21 180 4.8 17.7 0.00 0.00 0.00 51 1017.5
20260509164529 21 182 9.7 17.7 0.00 0.00 0.00 50 1017.5
20260509163026 22 182 0.0 0.0 0.00 0.00 0.00 49 1017.4
20260509161545 22 215 0.0 0.0 0.00 0.00 0.00 46 1017.4
20260509160039 23 194 0.0 0.0 0.00 0.00 0.00 45 1017.5
20260509154521 23 211 0.0 0.0 0.00 0.00 0.00 43 1017.5
20260509153017 23 182 0.0 0.0 0.00 0.00 0.00 44 1017.5
20260509151510 23 111 0.0 0.0 0.00 0.00 0.00 44 1017.6
20260509150018 23 161 0.0 0.0 0.00 0.00 0.00 45 1017.8
20260509144537 23 235 0.0 0.0 0.00 0.00 0.00 43 1017.8
20260509143013 23 172 0.0 0.0 0.00 0.00 0.00 44 1018.0
20260509141513 23 187 0.0 0.0 0.00 0.00 0.00 45 1018.2
20260509140053 23 205 0.0 0.0 0.00 0.00 0.00 45 1018.5
20260509134512 22 227 0.0 0.0 0.00 0.00 0.00 46 1018.6
20260509133048 23 181 0.0 0.0 0.00 0.00 0.00 44 1018.6
20260509131526 23 162 0.0 0.0 0.00 0.00 0.00 45 1018.7
20260509130028 23 190 0.0 0.0 0.00 0.00 0.00 39 1018.7
20260509124527 22 88 0.0 0.0 0.00 0.00 0.00 38 1018.7
20260509123025 23 248 0.0 0.0 0.00 0.00 0.00 36 1018.6
20260509121545 23 113 0.0 0.0 0.00 0.00 0.00 37 1018.8
20260509120023 23 69 0.0 0.0 0.00 0.00 0.00 36 1018.9
20260509114522 23 116 0.0 0.0 0.00 0.00 0.00 36 1019.1
20260509113020 22 126 0.0 0.0 0.00 0.00 0.00 36 1019.1
20260509111516 22 178 0.0 0.0 0.00 0.00 0.00 38 1019.1
20260509110018 22 123 0.0 0.0 0.00 0.00 0.00 38 1019.3
20260509104513 21 111 0.0 0.0 0.00 0.00 0.00 39 1019.4
20260509103029 21 113 0.0 0.0 0.00 0.00 0.00 41 1019.6
20260509101530 21 182 0.0 0.0 0.00 0.00 0.00 41 1019.6
20260509100026 21 178 0.0 0.0 0.00 0.00 0.00 41 1019.6
20260509094545 21 153 0.0 0.0 0.00 0.00 0.00 43 1019.6
20260509093025 20 152 0.0 0.0 0.00 0.00 0.00 42 1019.7
20260509091524 19 155 0.0 0.0 0.00 0.00 0.00 45 1019.8
20260509090042 18 157 0.0 0.0 0.00 0.00 0.00 48 1019.9
20260509084523 18 158 0.0 0.0 0.00 0.00 0.00 50 1020.0
20260509083033 17 153 0.0 0.0 0.00 0.00 0.00 54 1020.0
20260509081529 17 145 0.0 0.0 0.00 0.00 0.00 54 1019.9
20260509080011 17 159 0.0 0.0 0.00 0.00 0.00 55 1020.0
20260509074549 16 157 0.0 0.0 0.00 0.00 0.00 57 1020.3